GFSMW_925_thetae_087.txt.gz
Theta_e
352 351 352 352 351 347 345 341 339 343 344 346 347 347 345 345 347 348 348 346 347 347 347 340 343 346 347 346 345 347 346 348 348 346 349 349 349 348 348 348 348 349 350
353 352 352 354 352 350 347 345 342 346 344 344 345 345 346 346 346 347 348 348 346 345 346 345 345 346 346 346 344 345 345 345 345 348 348 348 345 346 346 347 348 348 348
355 355 353 354 354 353 350 348 346 347 347 348 347 348 348 349 348 348 347 348 348 347 347 346 346 346 346 348 346 345 343 343 346 347 345 350 346 345 346 347 346 348 348
353 355 355 355 355 354 354 352 351 350 350 349 349 348 348 349 349 349 348 348 346 347 346 347 347 346 346 347 349 346 343 339 341 343 344 343 345 344 344 346 346 345 347
352 353 356 355 355 355 355 354 354 353 352 350 350 349 348 348 350 349 350 350 348 346 344 345 345 345 345 345 346 346 343 339 340 341 344 346 346 345 344 345 342 344 345
351 352 353 354 356 356 356 355 355 354 353 351 350 349 349 349 349 350 350 350 349 348 345 343 345 344 344 345 345 345 343 341 341 341 341 343 344 345 345 345 344 344 343
345 352 355 358 357 357 356 355 355 355 353 352 351 349 349 350 350 350 348 348 348 348 348 347 344 344 344 344 345 344 342 341 340 340 340 342 343 344 343 345 345 346 343
340 349 354 357 357 357 356 355 355 355 354 353 351 350 348 348 348 349 347 348 348 347 348 346 347 343 343 344 344 343 342 341 340 339 339 339 339 341 339 341 343 343 343
349 342 350 354 355 357 357 356 356 355 354 353 352 351 349 349 348 350 348 348 347 347 347 348 347 343 344 344 344 344 344 342 342 342 343 343 343 342 341 337 339 342 344
350 340 350 354 355 356 356 356 356 355 354 353 352 351 350 350 351 353 348 348 348 346 346 347 348 346 343 343 341 341 344 344 344 345 344 344 342 344 343 342 340 341 341
357 354 354 355 355 356 355 356 355 355 354 353 352 351 350 349 352 352 349 349 348 346 345 348 347 347 344 340 338 338 339 341 342 342 342 344 344 342 343 343 341 341 340
360 359 358 357 356 356 356 355 355 354 352 353 352 351 351 350 351 351 351 349 349 346 346 348 347 347 346 345 345 346 344 345 345 343 343 342 340 339 340 343 344 343 342
359 359 358 358 357 357 357 355 354 353 352 351 352 352 351 351 353 353 352 350 350 349 346 347 347 347 347 347 347 346 345 344 344 343 343 343 343 343 343 343 343 343 342
347 345 342 341 341 342 347 351 351 351 350 351 352 352 352 352 353 354 352 351 351 350 348 347 347 347 347 346 345 346 345 344 343 343 342 342 343 340 339 342 343 343 342
347 345 344 342 337 335 335 335 345 352 351 351 351 349 348 351 353 352 353 352 352 351 349 347 347 347 346 345 345 345 345 344 343 342 341 341 340 340 339 340 341 343 340
343 341 340 339 338 336 331 335 342 339 349 350 344 345 344 342 342 341 344 349 352 350 348 347 347 346 345 343 342 343 343 344 343 343 341 340 337 338 337 337 335 338 338
341 340 343 341 337 338 338 338 341 337 337 338 337 338 341 337 337 335 334 341 347 351 349 349 348 346 346 343 342 341 341 342 342 343 342 340 339 338 338 335 333 335 337
342 338 338 337 335 335 338 344 344 342 339 337 336 334 333 335 332 333 336 336 342 349 349 349 348 347 346 343 342 341 341 342 342 341 341 340 340 337 338 338 339 337 336
334 333 331 331 331 332 337 340 339 343 338 338 340 336 335 335 336 336 333 338 342 347 348 345 343 343 345 344 342 342 342 343 341 341 340 340 340 338 335 337 338 338 338
331 329 329 329 328 328 333 334 333 335 335 336 339 337 338 343 345 340 338 341 342 343 341 341 338 337 338 336 337 341 342 342 341 340 339 335 338 336 335 336 338 339 338
329 328 327 326 325 326 327 328 329 330 331 334 337 336 335 338 341 342 340 340 339 337 336 337 337 337 335 334 331 337 337 341 340 340 339 338 334 335 334 334 334 336 336
326 326 326 325 324 323 324 326 324 325 328 332 334 335 332 332 335 337 337 337 337 335 334 333 333 334 334 333 334 330 331 335 339 339 338 337 334 335 334 334 335 333 333
325 325 325 325 325 324 324 324 323 322 325 326 327 330 332 331 331 332 333 333 334 335 335 336 336 335 334 333 332 329 329 331 337 338 336 334 334 334 334 332 330 332 333
324 325 325 325 325 325 325 325 325 324 324 324 324 324 325 328 331 333 333 333 333 332 330 329 329 332 333 335 335 334 330 331 333 334 332 332 332 330 328 327 327 329 330
325 324 324 325 324 324 324 323 323 322 322 326 326 325 324 325 328 330 330 331 330 329 329 328 331 333 334 335 334 335 329 328 331 330 329 329 329 329 328 328 327 326 325
324 324 323 323 322 322 322 322 322 321 321 321 325 324 325 326 326 328 329 330 329 327 329 328 328 329 329 331 333 329 328 331 332 329 329 330 331 332 331 329 327 327 326

GFSMW_925_thetae_093.txt.gz
Theta_e
353 354 350 349 350 352 355 354 356 354 353 353 352 350 348 350 350 349 351 351 352 349 351 350 350 354 349 351 352 352 354 353 352 351 350 350 351 350 348 347 347 346 348
352 357 352 350 352 353 356 355 356 358 355 352 351 349 349 348 351 351 350 352 351 351 351 351 352 352 350 346 347 353 352 352 350 351 350 358 348 348 348 348 348 349 348
353 358 358 354 351 354 357 358 356 359 357 353 352 351 350 349 348 348 352 352 352 351 351 352 351 350 351 344 352 348 350 350 349 350 349 356 350 349 347 349 348 346 346
352 358 358 359 352 353 357 359 357 358 359 357 353 352 350 349 347 348 348 350 350 351 351 351 351 351 350 349 349 351 350 349 348 348 348 348 347 356 355 348 348 348 349
348 355 358 356 354 352 355 358 359 357 356 358 354 354 352 348 348 348 349 350 352 351 352 353 352 353 351 349 349 349 349 350 350 349 349 348 349 349 349 355 347 349 349
346 351 355 357 358 355 354 356 361 359 358 358 358 356 354 351 348 348 349 350 350 351 352 352 350 351 352 352 351 348 348 350 350 349 349 347 347 347 350 350 347 346 348
337 337 353 357 362 358 357 357 362 362 360 359 358 360 358 353 352 352 349 348 347 349 350 351 351 350 351 350 349 350 349 350 349 350 349 347 346 344 345 348 351 353 347
344 345 342 351 354 359 360 359 362 364 362 361 361 361 358 354 352 352 348 348 346 350 349 353 352 351 349 349 350 350 351 348 349 348 347 346 346 342 343 344 345 349 349
349 348 347 347 349 353 360 361 364 365 363 363 363 362 360 355 352 350 351 349 347 348 351 351 348 348 349 349 350 348 349 350 349 348 347 345 345 342 340 343 339 344 351
352 353 353 350 345 350 354 360 362 365 365 364 363 363 361 357 353 352 352 351 349 350 350 349 348 350 349 349 350 347 346 348 349 349 348 347 343 343 341 340 343 345 347
360 363 360 354 349 345 352 357 362 365 362 364 363 363 360 358 353 351 353 353 351 352 352 350 350 351 351 350 349 347 346 347 347 347 348 348 348 347 346 347 345 347 347
361 363 363 360 356 354 355 360 359 357 357 360 361 361 360 357 354 352 353 353 352 352 352 351 349 349 348 349 347 348 345 345 346 346 346 346 347 348 347 346 346 347 346
357 354 352 356 355 348 343 341 341 340 346 349 354 352 343 355 354 352 352 354 352 352 352 351 349 348 348 349 347 347 347 346 346 346 346 346 346 346 345 344 344 344 345
353 346 343 342 342 339 340 340 339 338 340 344 345 339 341 339 344 353 353 353 353 353 353 352 349 349 348 347 348 348 348 348 346 345 346 344 344 345 344 346 347 347 347
349 348 346 345 343 343 341 340 340 338 341 343 340 337 336 344 347 351 352 353 353 352 352 352 350 349 348 346 347 346 347 347 347 346 345 345 344 344 344 344 344 344 345
347 347 346 346 344 342 342 342 342 340 339 338 342 338 339 339 348 350 352 352 353 352 352 353 352 351 348 346 346 347 347 345 346 347 346 344 344 343 342 338 339 344 345
345 344 343 341 343 344 343 341 339 340 343 348 344 340 336 337 338 351 352 352 352 353 353 355 354 352 350 348 347 346 346 345 345 345 344 344 343 344 344 339 337 338 338
342 343 343 341 339 341 346 344 341 341 342 344 345 344 345 345 346 347 353 353 353 352 351 352 353 354 352 350 349 347 347 347 345 345 344 344 344 344 343 343 342 340 339
338 337 338 338 337 339 340 344 344 342 341 341 342 342 342 345 346 349 349 349 348 349 348 350 352 353 354 351 348 347 347 347 347 345 345 346 346 345 343 342 343 343 342
335 335 334 334 336 337 338 339 338 338 340 342 342 343 344 344 344 345 346 343 345 346 346 347 350 352 354 353 348 347 346 344 344 345 346 346 345 345 344 343 342 343 343
333 333 332 333 332 332 334 335 333 334 334 336 340 342 343 344 344 344 346 346 346 346 348 348 349 349 350 349 348 345 345 344 345 343 344 345 346 344 343 342 341 342 341
332 331 332 331 332 332 332 332 332 333 333 334 334 335 337 339 341 342 341 343 343 344 343 344 345 346 345 346 345 344 342 342 342 342 343 344 345 345 343 341 340 341 340
332 331 331 331 331 330 330 330 330 330 332 333 333 333 333 334 337 338 339 341 341 344 342 342 342 342 343 344 344 343 342 341 340 339 339 339 342 342 343 340 338 339 339
331 331 330 330 329 329 328 328 328 328 328 329 331 333 333 331 333 334 336 337 337 339 339 338 337 337 338 337 337 338 341 340 337 335 335 334 335 342 342 337 336 337 337
330 329 329 329 329 329 329 328 327 327 327 328 327 330 329 333 333 332 332 332 334 334 333 335 336 337 337 336 333 333 334 338 337 336 335 334 336 336 337 337 335 337 336
330 329 330 330 330 330 329 328 327 326 327 327 325 326 325 327 330 331 332 333 331 330 329 331 330 329 328 331 332 332 331 332 332 331 334 335 335 338 337 336 335 335 334

GFSMW_925_thetae_096.txt.gz
Theta_e
347 354 351 349 352 355 356 356 356 359 358 357 355 355 351 354 349 348 349 348 349 349 351 349 349 349 348 349 350 351 350 350 351 349 349 350 349 350 351 350 346 347 347
347 357 353 351 352 357 356 358 357 357 358 356 354 353 355 351 348 349 349 352 349 349 351 352 352 350 353 349 352 351 350 350 350 349 348 352 349 351 350 346 350 348 348
348 359 357 354 354 356 358 357 360 358 357 357 355 353 351 352 350 349 350 351 351 351 350 351 349 352 353 351 348 349 350 352 349 349 348 350 352 349 350 351 348 347 350
350 361 359 357 355 356 360 359 360 361 357 355 355 355 353 352 353 355 353 353 353 353 351 349 351 352 353 350 349 346 351 348 350 348 348 348 349 351 352 350 351 347 349
348 361 360 357 355 356 359 361 359 363 359 358 355 354 353 353 350 350 350 354 351 353 352 349 349 349 351 349 348 349 351 350 350 348 349 349 349 347 350 351 347 348 346
347 359 361 358 356 356 358 360 361 361 362 360 359 356 355 352 352 349 352 352 354 350 352 353 350 350 351 351 348 348 348 347 348 348 345 348 348 349 349 349 348 349 346
347 338 342 361 358 356 357 361 364 362 362 362 360 360 356 352 351 351 351 353 352 355 353 350 352 351 351 349 349 350 348 347 348 349 349 349 347 347 347 347 346 348 345
342 344 349 362 361 358 357 358 363 364 362 362 361 362 358 355 357 355 350 352 351 349 352 350 351 351 350 348 348 349 351 349 346 347 348 346 346 346 345 344 345 345 345
347 345 344 358 362 361 360 358 361 365 364 362 362 359 362 361 355 354 352 350 349 352 351 350 353 353 348 351 350 347 348 349 348 349 348 348 347 345 344 343 343 343 346
354 362 361 363 358 359 361 361 362 366 365 363 363 362 364 361 355 354 351 353 349 353 351 353 352 350 350 348 350 349 347 348 348 348 348 346 346 346 344 341 340 342 341
350 364 364 362 357 355 355 363 364 368 367 364 364 365 363 361 359 356 352 351 353 351 352 351 349 350 351 350 348 348 348 348 347 347 348 347 347 346 344 343 341 341 341
359 355 356 356 353 352 354 364 366 369 367 365 363 360 348 359 358 355 355 350 353 351 351 351 348 352 352 348 348 348 347 346 346 346 346 347 348 347 347 346 345 346 345
349 347 346 346 346 347 347 346 348 348 350 354 351 344 342 339 339 348 352 354 352 353 351 350 351 350 351 349 347 346 347 347 346 346 346 345 344 346 344 346 346 344 345
350 347 346 345 344 343 345 344 343 342 345 348 346 339 342 341 333 334 346 350 350 352 350 352 351 349 348 351 349 346 346 346 347 346 345 344 345 345 345 343 343 343 344
348 348 346 345 344 343 343 341 342 339 342 343 342 341 339 341 338 330 331 343 350 351 349 350 351 350 351 349 350 347 347 347 346 345 345 345 345 343 343 345 342 344 345
347 346 344 346 346 345 343 345 344 342 345 345 342 339 337 335 333 334 338 349 350 351 350 350 350 351 350 348 347 346 347 346 348 347 345 343 344 345 344 342 344 343 343
344 345 344 342 343 344 345 342 342 340 341 343 345 341 340 340 341 344 347 349 351 351 351 350 350 351 349 350 348 346 348 349 347 346 345 344 346 345 345 343 342 338 339
340 344 341 339 340 343 344 341 341 343 344 344 346 345 341 340 338 337 337 347 348 350 349 348 349 351 350 351 347 346 346 346 347 348 347 344 343 344 344 345 342 338 337
338 341 340 338 339 340 341 340 340 343 344 344 344 344 345 343 342 341 344 347 347 345 347 349 350 350 349 349 351 348 348 348 348 349 347 347 344 346 345 343 344 343 342
335 334 334 334 336 337 336 335 335 336 337 339 340 344 345 343 341 343 343 342 341 341 342 343 342 347 350 350 348 347 348 348 349 350 349 347 347 345 345 344 343 344 344
334 334 334 335 336 334 335 335 335 335 336 337 336 336 338 340 342 342 343 339 337 342 345 345 345 347 348 350 349 346 348 349 349 348 347 347 345 345 346 345 344 344 341
333 333 333 333 333 333 333 333 333 333 334 335 335 334 334 335 338 340 342 343 343 343 345 344 344 345 346 345 347 349 348 346 346 348 347 346 346 345 344 345 344 343 342
334 332 332 331 331 331 331 331 331 331 331 332 335 336 334 331 335 336 338 339 340 343 344 344 344 343 343 344 345 344 345 344 344 343 343 343 342 340 341 345 344 343 341
332 331 330 331 331 330 330 330 329 329 329 330 330 332 335 332 332 334 332 333 336 338 338 338 338 338 339 338 334 336 339 341 343 342 342 341 339 337 336 337 343 342 340
331 330 331 330 330 330 330 330 328 328 328 328 328 329 328 330 336 335 333 332 332 332 333 333 335 335 335 336 333 331 330 331 332 334 335 337 337 337 335 334 336 339 338
330 330 330 330 330 330 330 329 327 327 327 328 327 327 325 324 326 331 333 331 332 333 331 329 328 328 328 326 326 326 326 327 330 330 332 334 337 338 338 337 338 337 337

GFSMW_925_thetae_102.txt.gz
Theta_e
350 350 349 351 351 353 355 356 356 354 353 353 352 351 351 351 351 352 351 351 349 347 348 349 347 348 349 349 349 349 348 349 348 347 346 346 345 348 348 347 347 345 346
351 349 348 351 354 353 354 356 356 355 353 352 352 351 350 352 353 352 352 351 350 348 346 348 348 349 350 349 349 349 348 348 349 348 345 342 344 345 347 349 349 348 347
350 350 348 351 354 354 354 355 356 356 354 353 352 352 351 351 352 351 350 349 350 348 347 346 346 347 348 349 350 349 348 348 348 349 345 343 343 342 344 344 346 347 348
341 349 348 351 352 354 354 354 355 355 354 353 351 353 351 350 351 350 350 350 349 349 349 347 346 347 348 349 348 348 348 348 349 349 349 345 345 345 343 346 348 348 347
344 348 347 351 351 354 354 354 354 354 354 354 352 352 352 350 349 349 348 350 350 350 349 347 347 347 348 349 348 347 348 349 349 347 345 347 347 347 344 345 345 345 345
339 343 344 344 349 352 355 355 354 354 354 354 353 352 352 350 351 349 351 350 351 350 350 349 348 346 347 348 349 350 350 349 348 346 344 344 345 345 345 345 343 344 344
338 337 339 340 340 340 345 354 356 355 355 354 353 352 351 350 351 351 351 350 350 350 350 349 349 348 348 348 348 348 349 347 347 345 345 346 346 346 345 344 342 341 344
338 337 337 335 337 337 337 336 344 355 356 355 354 353 351 349 350 351 351 351 350 350 349 350 351 350 350 349 348 348 347 347 347 346 346 345 346 346 347 346 344 341 340
338 337 337 336 335 336 335 335 339 350 356 355 354 354 352 351 350 350 351 351 352 350 349 351 350 351 351 349 348 347 347 348 347 347 345 346 347 346 346 347 347 344 346
339 340 338 337 335 334 331 335 344 346 355 356 355 354 355 353 352 351 351 350 350 350 351 350 350 350 349 351 349 349 349 348 346 346 346 346 346 347 347 346 347 346 344
340 344 341 340 337 334 333 335 336 343 344 358 356 355 355 356 353 352 355 353 351 352 352 351 350 350 350 351 350 349 348 347 347 346 347 347 346 345 345 345 345 343 342
333 338 344 341 339 343 343 337 334 340 343 344 355 354 342 341 339 340 348 348 350 351 352 351 349 350 350 350 350 348 349 349 346 346 348 346 347 346 344 345 344 343 341
340 341 343 344 344 343 341 341 343 343 352 349 345 341 338 335 339 339 338 345 346 348 348 349 350 350 348 350 348 349 349 348 346 347 346 344 346 347 345 345 345 344 342
334 336 341 341 343 341 341 342 343 342 348 349 342 333 335 334 335 341 341 342 340 343 332 345 348 349 348 347 350 349 348 347 346 346 345 345 345 345 345 345 344 344 344
332 337 340 341 342 344 343 340 344 343 343 342 343 342 336 339 336 338 341 340 340 338 333 341 345 348 348 347 349 348 348 345 345 347 346 345 345 345 344 343 344 344 343
341 342 340 340 342 342 343 343 341 342 341 342 342 342 340 340 340 339 338 336 336 336 333 336 343 347 348 347 347 349 349 346 346 346 346 346 346 345 344 343 344 343 343
343 341 339 339 340 340 339 341 341 342 344 345 342 340 340 339 339 339 338 337 337 338 340 338 339 347 347 347 346 347 348 349 348 347 346 345 344 343 343 344 344 345 343
340 338 338 337 337 338 338 340 341 341 342 343 343 339 338 338 336 336 336 337 337 338 342 343 343 345 346 345 346 346 346 349 349 348 347 346 345 344 344 344 343 344 343
333 336 337 337 336 335 336 336 336 337 337 337 340 341 341 340 339 337 336 335 337 338 341 343 343 343 342 343 344 344 344 346 347 347 348 347 345 346 345 344 342 344 343
333 333 333 333 331 331 332 333 335 333 334 334 335 338 340 341 341 340 337 339 339 340 339 343 343 344 342 342 342 340 339 342 344 345 346 345 344 344 343 342 343 343 343
332 331 332 332 331 330 329 329 330 331 334 334 331 330 334 337 338 340 340 340 339 339 339 338 339 341 341 339 336 339 340 342 344 344 342 339 338 339 344 341 341 343 343
331 330 330 330 330 328 328 328 328 329 328 329 333 332 331 332 334 336 337 338 340 340 339 339 340 341 341 341 340 340 340 342 343 344 343 341 338 337 344 344 344 344 344
331 330 330 330 330 329 327 327 327 326 327 327 326 328 333 331 331 332 333 335 337 336 336 336 335 336 336 334 335 336 338 339 340 341 343 344 344 344 344 343 341 342 341
330 330 330 329 329 329 328 327 327 325 325 326 326 326 326 330 330 331 331 331 331 331 330 330 331 332 333 332 331 330 330 330 331 331 332 338 339 340 343 342 341 340 339
329 329 329 329 328 329 327 325 325 325 325 325 325 325 325 324 325 326 330 331 331 332 331 329 329 328 327 325 325 324 324 324 324 326 327 329 332 334 336 338 339 339 336
329 329 329 328 328 329 327 325 323 324 324 324 323 323 324 325 324 322 323 331 330 331 331 330 329 328 327 327 325 324 324 324 324 321 320 322 326 330 332 334 335 336 336

GFSMW_925_thetae_105.txt.gz
Theta_e
348 347 347 351 352 351 351 350 349 349 348 348 350 350 350 349 346 348 349 348 348 349 348 347 346 345 346 347 347 348 349 348 347 347 347 347 347 347 347 347 347 346 344
349 348 348 350 352 352 352 352 351 351 350 349 349 350 350 350 349 350 351 350 349 350 349 347 347 346 344 347 347 347 347 349 348 347 344 342 344 345 344 344 346 347 348
341 349 348 350 351 352 353 353 352 352 351 351 350 349 350 350 350 351 352 351 350 350 349 347 346 348 347 347 348 348 348 348 348 348 346 341 342 340 343 344 344 346 348
344 342 348 348 350 351 352 353 354 353 352 352 351 350 348 349 350 349 350 351 351 350 350 348 346 347 348 348 348 348 348 348 347 346 347 345 343 341 341 343 346 346 345
343 343 345 348 350 352 352 353 355 355 353 351 351 350 349 348 349 350 352 351 350 350 349 349 347 346 346 346 347 348 349 349 348 347 347 347 346 344 342 343 344 344 344
339 340 342 343 343 352 353 353 354 354 355 353 351 350 350 348 348 350 350 350 349 349 349 349 348 348 347 346 347 348 348 348 348 347 347 346 344 345 343 342 343 344 344
338 337 340 340 338 339 343 343 348 349 353 354 353 351 351 349 348 348 348 349 348 349 350 349 349 349 348 347 347 347 346 347 347 348 347 347 345 343 343 343 340 341 343
336 336 337 337 338 338 340 336 336 339 340 340 352 352 351 350 349 348 347 348 348 348 348 349 349 349 348 348 347 347 347 346 346 346 346 345 345 343 345 345 344 343 340
335 337 337 336 335 337 337 338 337 339 335 337 335 349 352 350 349 349 349 348 348 347 347 348 349 349 348 349 349 348 348 348 347 345 346 345 345 345 345 346 346 344 346
336 341 340 337 336 335 334 332 333 335 338 340 334 337 350 350 349 348 349 350 351 350 350 350 348 349 349 350 350 349 349 348 347 347 347 346 345 345 346 346 346 347 344
329 337 340 341 341 339 340 338 335 334 333 338 336 343 348 348 348 349 349 349 350 351 351 350 350 349 350 350 350 350 349 347 348 348 347 346 345 345 346 347 346 346 345
335 333 332 340 342 343 343 341 340 336 336 339 340 337 336 337 335 333 340 348 349 351 350 351 351 350 349 349 349 349 350 349 348 348 346 346 346 346 346 345 345 344 343
334 336 340 340 341 343 340 341 342 340 336 340 340 337 335 337 333 334 335 338 345 349 350 351 351 351 350 348 348 349 349 348 347 346 347 345 346 346 346 346 344 344 343
330 330 336 336 340 342 341 341 342 343 348 342 338 334 335 332 333 335 335 334 339 345 346 346 347 348 348 349 347 348 349 347 347 348 345 345 345 344 344 345 345 344 344
333 335 338 337 340 341 343 341 342 342 341 339 338 336 335 336 334 332 332 334 342 339 339 342 345 344 345 347 347 346 347 347 349 348 346 346 345 344 344 344 344 344 344
341 342 340 338 340 340 340 339 339 339 342 344 344 341 338 336 335 334 333 338 341 341 339 335 334 335 338 346 347 346 346 348 348 347 346 345 346 345 345 344 344 342 343
338 337 339 338 339 338 340 341 341 342 342 342 340 340 340 340 339 337 335 336 338 339 335 335 335 335 336 338 345 345 344 347 347 346 345 345 345 345 345 345 344 343 343
336 337 335 336 336 337 338 339 340 341 341 341 340 339 338 338 338 339 338 338 339 338 337 338 337 339 333 335 343 344 344 344 346 346 346 346 346 345 345 343 343 343 343
333 334 336 333 332 333 335 334 336 336 336 336 339 340 340 339 337 335 335 336 337 337 337 338 340 341 338 341 343 341 342 342 344 345 345 345 344 345 345 345 344 344 343
332 332 331 330 329 329 330 331 332 333 332 331 333 336 338 339 340 339 336 336 336 338 337 340 341 342 342 342 341 342 340 340 340 340 342 344 344 344 345 345 344 344 343
330 331 329 328 327 327 328 327 327 327 329 333 331 331 333 335 337 339 339 339 339 339 339 338 340 341 342 340 340 340 340 340 339 340 339 342 344 344 342 341 342 343 341
329 329 328 328 327 326 326 325 325 326 326 326 327 332 331 332 333 336 336 338 339 338 338 338 339 339 339 339 339 339 338 338 340 341 342 343 342 337 337 338 340 342 343
329 329 329 328 328 327 326 325 325 325 325 325 325 327 331 326 331 330 331 334 334 335 335 334 335 334 333 334 332 332 332 333 334 335 337 340 341 342 343 343 343 342 341
329 329 328 327 327 327 326 325 325 324 324 324 323 324 324 324 325 331 331 330 330 330 329 329 329 330 332 330 327 325 324 324 324 325 328 331 333 336 338 338 341 341 342
328 328 327 327 327 327 325 323 323 324 323 322 322 322 323 324 323 322 323 329 330 331 329 329 328 327 326 326 326 325 324 323 324 324 324 324 324 326 330 333 336 338 339
328 327 327 326 327 327 327 324 324 322 321 322 321 320 321 322 323 322 321 328 330 331 331 330 329 328 327 326 324 323 323 321 321 322 321 321 320 321 323 327 330 333 335